x

Virginia Beach 64 Nm East Of Virginia Beach, Va (44014) Wave Buoy

6:50 - Wed 23rd Jul 2014 All times are EDT. -4 hours from GMT.

  • Sig Wave height 2.6ft
  • Peak Period 5s
  • Wind
    18mph, 20mph gusts
  • Sea Temp 79°f
  • Aire Temp 79°f
  • Sea Pressure 1012.1mb
  • Virginia Beach 64 Nm East Of Virginia Beach, Va
  • Virginia Beach 64 Nm East Of Virginia Beach, Va

More Historic Weather Station data

Upgrade to MSW Pro to gain access to the past 30 days of data for over 8000 Wavebouys and Weather Stations around the globe.

Join Pro

Comparision Forecast

View Surf forecast
   
mié 07/23 6:50 2.5ft 5s 18 20 mph 1012.1mb 79f 79f
5:50 2.5ft 6s 16 18 mph 1012.8mb 79f 79f
4:50 2.5ft 5s 13 16 mph 1013.6mb 80f 78f
3:50 2.5ft 6s 9 11 mph 1014.3mb 80f 78f
2:50 2.5ft 5s 9
mph
1014.9mb 79f 77f
1:50 2.5ft 8s 11 13 mph 1015.3mb 79f 77f
12:50 2.5ft 5s 7 9 mph 1015.7mb 79f 77f
11:50 2.5ft 8s 7 9 mph 1016.3mb 79f 77f
10:50 2.5ft 5s 9 11 mph 1016.8mb 78f 77f
9:50 2.5ft 7s 7 9 mph 1016.9mb 78f 77f
8:50 2.5ft 7s 9
mph
1016.9mb 78f 77f
7:50 2.5ft 5s 4 7 mph 1016.7mb 78f 77f
6:50 2.5ft 7s 7 9 mph 1016.4mb 78f 77f
5:50 2.5ft 7s 11
mph
1016.5mb 78f 77f
4:50 2.5ft 8s 11 13 mph 1016.4mb 78f 77f
3:50 2.5ft 5s 11 13 mph 1017.1mb 78f 77f
2:50 2.5ft 5s 9
mph
1017.4mb 78f 78f
1:50 2.5ft 9s 7 9 mph 1018.3mb 78f 77f
12:50 2.5ft 8s 9
mph
1018.6mb 78f 77f
mar 07/22 11:50 2.5ft 8s 11 13 mph 1018.8mb 78f 77f
10:50 2.5ft 8s 9 11 mph 1019.1mb 78f 77f
9:50 2.5ft 7s 9 11 mph 1019.3mb 78f 77f
8:50 2.5ft 7s 7 9 mph 1019.3mb 78f 77f
7:50 2.5ft 7s 7
mph
1019.3mb 78f 76f
6:50 2.5ft 8s 7
mph
1019.2mb 78f 76f
5:50 2.5ft 8s 7 9 mph 1019.3mb 78f 76f
4:50 2.5ft 7s 9 11 mph 1019.9mb 78f 76f
3:50 2.5ft 7s 11 13 mph 1020.4mb 78f 75f
2:50 2.5ft 8s 16
mph
1020.3mb 78f 77f
1:50 2.5ft 7s 13 16 mph 1020.7mb 78f 77f
12:50 2.5ft 7s 11 13 mph 1021mb 78f 77f
11:50 2.5ft 8s 11 13 mph 1021.3mb 78f 77f
10:50 3ft 8s 11 13 mph 1021.2mb 78f 77f
9:50 2.5ft 8s 11 13 mph 1021.3mb 77f 76f
8:50 2.5ft 8s 11
mph
1021.5mb 77f 76f
7:50 2.5ft 8s 9 11 mph 1021.4mb 77f 76f
6:50 2.5ft 6s 9 11 mph 1020.9mb 77f 76f
5:50 2.5ft 7s 9 11 mph 1020.5mb 77f 76f
4:50 2.5ft 7s 9
mph
1020mb 77f 76f
3:50 2.5ft 8s 7 9 mph 1020.2mb 77f 76f
2:50 2.5ft 6s 4
mph
1020.7mb 77f 76f
1:50 2.5ft 8s 4 7 mph 1020.8mb 77f 76f
12:50 3ft 7s 7 9 mph 1021.1mb 77f 76f
lun 07/21 11:50 3ft 8s 7 9 mph 1021.1mb 77f 76f
10:50 3ft 7s 7 9 mph 1021.1mb 77f 76f
9:50 3ft 8s 9 11 mph 1021.4mb 77f 76f
8:50 2.5ft 8s 7 9 mph 1021.3mb 77f 76f
7:50 3ft 7s 7
mph
1021.1mb 78f 76f
6:50 3ft 7s 7 9 mph 1021.1mb 77f 76f
5:50 3.5ft 7s 4 7 mph 1021.2mb 77f 76f
4:50 3ft 7s 7
mph
1021mb 78f 76f
3:50 3ft 7s 7 9 mph 1021mb 78f 76f
2:50 3ft 8s 4 7 mph 1021.3mb 78f 76f
1:50 2.5ft 8s 9 11 mph 1020.9mb 78f 76f
12:50 3ft 7s 7 9 mph 1021.3mb 78f 76f
11:50 3ft 8s 7 9 mph 1021.5mb 78f 76f
10:50 3ft 8s 7
mph
1021.4mb 77f 75f
9:50 3.5ft 8s 7 9 mph 1021.2mb 77f 76f
8:50 3ft 7s 7
mph
1021.1mb 77f 75f
7:50 3ft 8s 4 7 mph 1020.8mb 77f 76f
6:50 3.5ft 8s 7
mph
1020.2mb 76f 75f
5:50 3.5ft 8s 7
mph
1019.8mb 77f 75f
4:50 3.5ft 7s 2 4 mph 1019.4mb 77f 75f
3:50 3.5ft 6s 2 4 mph 1019.1mb 77f 75f
2:50 3.5ft 8s 2 4 mph 1019.2mb 77f 75f
1:50 4ft 6s 4 7 mph 1019.5mb 77f 75f
12:50 4ft 6s 7
mph
1019.5mb 77f 75f
dom 07/20 11:50 4ft 6s 7 9 mph 1019.4mb 77f 75f
10:50 3.5ft 7s 7 9 mph 1019.5mb 77f 75f
9:50 3.5ft 8s 7 9 mph 1019.3mb 77f 75f
8:50 3.5ft 8s 7 9 mph 1018.6mb 77f 75f
7:50 3.5ft 8s 9 11 mph 1018.4mb 77f 75f
6:50 3.5ft 8s 11 13 mph 1018.1mb 77f 75f
5:50 3.5ft 8s 11 13 mph 1017.7mb 77f 75f
4:50 3.5ft 8s 11 13 mph 1017.7mb 77f 75f
3:50 3.5ft 5s 13 16 mph 1017.7mb 77f 76f
2:50 3.5ft 8s 13 18 mph 1017.8mb 77f 76f
1:50 3.5ft 8s 16 18 mph 1018.1mb 77f 76f
12:50 3.5ft 8s 16 18 mph 1018.4mb 76f 75f
11:50 3.5ft 8s 18 20 mph 1017.9mb 76f 75f
10:50 4ft 9s 20 22 mph 1017.9mb 76f 75f
9:50 4ft 8s 16 20 mph 1017.6mb 76f 75f
8:50 4.5ft 8s 16 18 mph 1017.5mb 76f 75f
7:50 4ft 8s 16 18 mph 1017mb 76f 76f
6:50 4ft 8s 18 22 mph 1016.3mb 76f 75f
5:50 4ft 8s 16 18 mph 1015.4mb 76f 75f
4:50 3.5ft 8s 13 18 mph 1015mb 76f 76f
3:50 4ft 8s 9 11 mph 1015.1mb 76f 75f
2:50 4ft 8s 11
mph
1015.4mb 76f 76f
1:50 4ft 8s 7 9 mph 1016mb 76f 77f
12:50 4ft 8s 7 9 mph 1016.3mb 76f 76f